Location: LDNL
(36.4545°S, 141.6685°E)
Time: 04:33:16
(UTC+11:00)

A-11 Canister half - Pass Details

Date: 19 August 2022
Orbit: 1524 x 1684 km, 47.3° (Epoch: 05 October)

Event Time Altitude Azimuth Distance (km) Brightness Sun altitude
Rises 12:34:31 0° 12° (NNE) 4,772 12.4 40.7°
Reaches altitude 10° 12:40:51 10° 42° (NE) 3,757 11.7 40.7°
Maximum altitude 12:43:26 11° 58° (ENE) 3,639 11.4 40.7°
Drops below altitude 10° 12:46:00 10° 75° (ENE) 3,737 11.3 40.7°
Sets 12:52:09 0° 105° (ESE) 4,703 11.4 40.6°
